Location: Newark
(16.3678°N, 77.8722°E)
Time: 01:13:41
(UTC+00:00)

Transit 2A - All Passes

Search period start: 07 December 2019 00:00
Search period end: 17 December 2019 00:00
Orbit: 602 x 957 km, 66.7° (Epoch: 06 December)

Date Brightness Start Highest point End Pass type
(mag) Time Alt. Az. Time Alt. Az. Time Alt. Az.
07 Dec - 01:39:30 10° SSW 01:44:54 74° WNW 01:49:45 10° NNE daylight
07 Dec - 12:21:23 10° NNW 12:26:03 75° ENE 12:31:13 10° SSE daylight
08 Dec - 01:05:28 10° SSW 01:10:49 65° ESE 01:15:39 10° NNE daylight
08 Dec - 11:47:32 10° N 11:51:59 43° ENE 11:56:49 10° SE daylight
08 Dec - 13:33:30 10° W 13:34:53 11° WSW 13:36:18 10° SW visible
09 Dec - 00:31:45 10° S 00:36:44 38° ESE 00:41:15 10° NE visible
09 Dec - 02:17:06 10° W 02:19:42 14° WNW 02:22:12 10° NW daylight
09 Dec - 11:14:00 10° N 11:17:54 25° ENE 11:22:03 10° ESE daylight
09 Dec - 12:57:22 10° WNW 13:00:48 19° WSW 13:04:28 10° SSW visible
09 Dec - 23:58:28 10° SSE 00:02:38 23° ESE 00:06:30 10° ENE visible
10 Dec - 01:41:28 10° WSW 01:45:34 23° WNW 01:49:23 10° NNW daylight
10 Dec - 10:41:01 10° NNE 10:43:46 15° ENE 10:46:38 10° E daylight
10 Dec - 12:22:27 10° NW 12:26:43 33° WSW 12:31:21 10° S daylight
10 Dec - 23:26:00 10° SE 23:28:33 14° ESE 23:30:59 10° E visible
11 Dec - 01:06:35 10° SW 01:11:28 38° WNW 01:15:56 10° N daylight
11 Dec - 11:47:59 10° NNW 11:52:38 56° WSW 11:57:45 10° S daylight
12 Dec - 00:32:07 10° SSW 00:37:23 66° WNW 00:42:09 10° NNE visible
12 Dec - 11:13:49 10° NNW 11:18:32 84° ENE 11:23:47 10° SSE daylight
12 Dec - 23:57:59 10° SSW 00:03:19 73° ESE 00:08:06 10° NNE visible
13 Dec - 10:39:54 10° N 10:44:28 48° ENE 10:49:29 10° SE daylight
13 Dec - 23:24:13 10° S 23:29:13 42° ESE 23:33:47 10° NE visible
14 Dec - 01:10:16 10° W 01:12:13 12° WNW 01:14:06 10° NW daylight
14 Dec - 10:06:17 10° N 10:10:23 29° ENE 10:14:48 10° SE daylight
14 Dec - 11:50:03 10° WNW 11:53:18 18° WSW 11:56:45 10° SSW daylight
14 Dec - 22:50:50 10° SSE 22:55:08 25° ESE 22:59:07 10° NE visible
15 Dec - 00:34:17 10° WSW 00:38:04 21° WNW 00:41:38 10° NNW visible
15 Dec - 09:33:08 10° NNE 09:36:15 17° ENE 09:39:34 10° ESE daylight
15 Dec - 11:15:01 10° NW 11:19:12 30° WSW 11:23:46 10° S daylight
15 Dec - 22:18:08 10° SE 22:21:02 15° ESE 22:23:48 10° ENE visible
15 Dec - 23:59:16 10° SW 00:03:57 34° WNW 00:08:16 10° N visible
16 Dec - 10:40:28 10° NW 10:45:07 50° WSW 10:50:15 10° S daylight
16 Dec - 23:24:43 10° SSW 23:29:53 58° WNW 23:34:33 10° N visible
